Location: Unspecified
(0.0000°N, 0.0000°E)
Time: 22:52:59
(UTC+00:00)

A-11 Canister half - Visible Passes

Search period start: 28 May 2022 00:00
Search period end: 07 June 2022 00:00
Orbit: 1513 x 1686 km, 47.2° (Epoch: 27 May)

Date Brightness Start Highest point End Pass type
(mag) Time Alt. Az. Time Alt. Az. Time Alt. Az.
28 May 10.9 02:10:52 15° ESE 02:10:52 15° ESE 02:14:35 10° E visible
28 May 9.1 04:09:07 33° SSW 04:14:28 81° SE 04:24:11 10° NE visible
29 May 11.1 01:49:42 12° ESE 01:49:42 12° ESE 01:50:52 10° ESE visible
29 May 9.1 03:47:57 46° SSW 03:51:32 75° SE 04:01:14 10° NE visible
30 May 9.1 03:26:45 59° S 03:28:35 70° SE 03:38:17 10° NE visible
30 May 10.2 05:25:48 10° W 05:33:27 25° NW 05:40:56 10° N visible
31 May 9.2 03:05:30 64° SE 03:05:38 64° SE 03:15:18 10° NE visible
31 May 10.1 05:03:43 14° W 05:10:29 28° NW 05:18:20 10° N visible
01 Jun 9.5 02:44:12 54° E 02:44:12 54° E 02:52:18 10° NE visible
01 Jun 9.9 04:42:25 20° W 04:47:31 30° NW 04:55:41 10° N visible
02 Jun 9.9 02:22:51 42° E 02:22:51 42° E 02:29:16 10° NE visible
02 Jun 9.8 04:21:04 27° W 04:24:33 33° NW 04:33:01 10° NNE visible
03 Jun 10.3 02:01:27 31° ENE 02:01:27 31° ENE 02:06:13 10° ENE visible
03 Jun 9.7 03:59:40 34° WNW 04:01:36 37° NW 04:10:19 10° NNE visible
04 Jun 10.7 01:40:00 22° ENE 01:40:00 22° ENE 01:43:07 10° ENE visible
04 Jun 9.6 03:38:12 40° NW 03:38:38 40° NW 03:47:36 10° NNE visible
05 Jun 11.0 01:18:29 15° ENE 01:18:29 15° ENE 01:20:01 10° ENE visible
05 Jun 9.6 03:16:42 43° NW 03:16:42 43° NW 03:24:50 10° NNE visible
06 Jun 9.8 02:55:07 41° NNW 02:55:07 41° NNW 03:02:04 10° NNE visible
